Weather History for Coolangatta Airport Aws, Queensland

Change the Weather History Date:

Sunday, September 15, 2013

  Actual Average Record
Temperature  
Mean Temperature 64 °F -  
Max Temperature 77 °F - - ()
Min Temperature 52 °F - - ()
Growing Degree Days 14 (Base 50)    
Moisture  
Dew Point 58 °F    
Average Humidity 77    
Maximum Humidity 100    
Minimum Humidity 41    
Precipitation  
Precipitation 0.00 in - - ()
Sea Level Pressure  
Sea Level Pressure 29.97 in    
Wind  
Wind Speed 6 mph ()    
Max Wind Speed 17 mph    
Max Gust Speed -    
Visibility 4.5 miles    
Events      
T = Trace of Precipitation, MM = Missing Value Source: Averaged Metar Reports

Daily Weather History Graph

Daily Weather History Graph

Search for Another Location

Airport:

Trip Planner

Search our weather history database for the weather conditions in past years. The results will help you decide how hot, cold, wet, or windy it might be!

Date:

Astronomy

Sep. 15, 2013 Rise Set
Actual Time 5:44 AM AEST 5:38 PM AEST
Civil Twilight 5:20 AM AEST 6:02 PM AEST
Nautical Twilight 4:53 AM AEST 6:29 PM AEST
Astronomical Twilight 4:26 AM AEST 6:56 PM AEST
Moon 1:16 PM AEST (9/15) 2:04 AM AEST (9/15)
Length of Visible Light 12h 41m
Length of Day
11h 54m
Waxing Gibbous, 76% of the Moon is Illuminated
Sep 15
Waxing Gibbous
Sep 19
Full
Sep 27
Last Quarter
Oct 5
New
Oct 12
First Quarter

Hourly Weather History & Observations

Time (AEST) Temp. Dew Point Humidity Pressure Visibility Wind Dir Wind Speed Gust Speed Precip Events Conditions
12:00 AM 63 °F 62 °F 95% 29.88 in 2 mi SW 4.6 mph - -  
12:00 AM 62.6 °F 62.6 °F 100% 29.89 in - SW 4.6 mph - N/A   Unknown
12:30 AM 60.8 °F 60.8 °F 100% 29.86 in 0.3 mi West 2.3 mph - N/A   Unknown
1:00 AM 57.2 °F 57.2 °F 100% 29.89 in 0.1 mi Calm Calm - N/A   Unknown
1:30 AM 59.0 °F 57.2 °F 94% 29.89 in 0.2 mi West 4.6 mph - N/A   Unknown
2:00 AM 60.8 °F 59.0 °F 94% 29.89 in 0.3 mi WSW 4.6 mph - N/A   Scattered Clouds
2:05 AM 59.0 °F 59.0 °F 100% 29.89 in 0.2 mi WSW 4.6 mph - N/A   Mostly Cloudy
2:30 AM 59.0 °F 57.2 °F 94% 29.89 in 0.1 mi WSW 2.3 mph - N/A   Mostly Cloudy
2:40 AM 57.2 °F 55.4 °F 94% 29.89 in 0.1 mi WSW 3.5 mph - N/A   Scattered Clouds
3:00 AM 56 °F 55 °F 95% 29.90 in 1 mi West 4.6 mph - -  
3:00 AM 55.4 °F 55.4 °F 100% 29.89 in 0.7 mi West 4.6 mph - N/A   Unknown
3:30 AM 53.6 °F 53.6 °F 100% 29.89 in 0.2 mi WSW 4.6 mph - N/A   Unknown
3:40 AM 55.4 °F 55.4 °F 100% 29.89 in 0.1 mi WSW 2.3 mph - N/A   Mostly Cloudy
4:00 AM 55.4 °F 53.6 °F 94% 29.92 in 0.1 mi Calm Calm - N/A   Mostly Cloudy
4:19 AM 53.6 °F 53.6 °F 100% 29.92 in 0.1 mi Calm Calm - N/A   Scattered Clouds
4:30 AM 55.4 °F 53.6 °F 94% 29.92 in 1.1 mi WSW 1.2 mph - N/A   Unknown
4:52 AM 53.6 °F 53.6 °F 100% 29.95 in 5.0 mi WSW 5.8 mph - N/A   Unknown
5:00 AM 53.6 °F 51.8 °F 94% 29.95 in 4.3 mi SSW 5.8 mph - N/A   Unknown
5:30 AM 57.2 °F 53.6 °F 88% 29.95 in 6.2 mi South 10.4 mph - N/A   Unknown
6:00 AM 61 °F 59 °F 90% 29.98 in - SSE 10.4 mph - -  
6:00 AM 60.8 °F 59.0 °F 94% 29.98 in 6.2 mi SSE 10.4 mph - N/A   Unknown
6:30 AM 62.6 °F 60.8 °F 94% 29.98 in 6.2 mi South 9.2 mph - N/A   Unknown
7:00 AM 64.4 °F 60.8 °F 88% 30.01 in 6.2 mi South 10.4 mph - N/A   Unknown
7:30 AM 66.2 °F 60.8 °F 83% 30.01 in 6.2 mi South 10.4 mph - N/A   Unknown
8:00 AM 69.8 °F 60.8 °F 73% 30.01 in 6.2 mi South 10.4 mph - N/A   Unknown
8:30 AM 71.6 °F 60.8 °F 69% 30.04 in 6.2 mi South 11.5 mph - N/A   Unknown
9:00 AM 72 °F 60 °F 57% 30.05 in - South 11.5 mph - -  
9:00 AM 71.6 °F 60.8 °F 69% 30.04 in 6.2 mi South 11.5 mph - N/A   Unknown
9:30 AM 73.4 °F 57.2 °F 57% 30.04 in 6.2 mi South 10.4 mph - N/A   Unknown
10:00 AM 75.2 °F 57.2 °F 53% 30.01 in 6.2 mi South 10.4 mph - N/A   Unknown
10:30 AM 77.0 °F 57.2 °F 50% 30.01 in 6.2 mi South 8.1 mph - N/A   Unknown
11:00 AM 75.2 °F 57.2 °F 53% 29.98 in 6.2 mi East 16.1 mph - N/A   Unknown
11:30 AM 75.2 °F 55.4 °F 50% 29.98 in 6.2 mi ESE 17.3 mph - N/A   Unknown
12:00 PM 76 °F 57 °F 41% 29.99 in - ESE 13.8 mph - -  
12:00 PM 77.0 °F 57.2 °F 50% 29.98 in 6.2 mi ESE 13.8 mph - N/A   Unknown
12:30 PM 77.0 °F 57.2 °F 50% 29.98 in 6.2 mi ESE 15.0 mph - N/A   Unknown
1:00 PM 77.0 °F 59.0 °F 54% 29.98 in 6.2 mi ESE 15.0 mph - N/A   Unknown
1:30 PM 75.2 °F 59.0 °F 57% 29.95 in 6.2 mi ESE 16.1 mph - N/A   Unknown
2:00 PM 73.4 °F 60.8 °F 65% 29.98 in 6.2 mi ESE 13.8 mph - N/A   Unknown
2:30 PM 73.4 °F 60.8 °F 65% 29.95 in 6.2 mi ESE 12.7 mph - N/A   Unknown
3:00 PM 73 °F 60 °F 54% 29.95 in - East 13.8 mph - -  
3:00 PM 73.4 °F 59.0 °F 61% 29.95 in 6.2 mi East 13.8 mph - N/A   Unknown
3:30 PM 73.4 °F 59.0 °F 61% 29.95 in 6.2 mi ESE 11.5 mph - N/A   Unknown
4:00 PM 73.4 °F 60.8 °F 65% 29.95 in 6.2 mi ESE 11.5 mph - N/A   Unknown
4:30 PM 71.6 °F 57.2 °F 60% 29.95 in 6.2 mi ESE 11.5 mph - N/A   Scattered Clouds
5:00 PM 69.8 °F 57.2 °F 64% 29.98 in 6.2 mi SE 9.2 mph - N/A   Unknown
5:30 PM 68.0 °F 57.2 °F 68% 29.98 in 6.2 mi SE 6.9 mph - N/A   Unknown
6:00 PM 67 °F 58 °F 64% 30.01 in - SSE 4.6 mph - -  
6:00 PM 68.0 °F 57.2 °F 68% 30.01 in 6.2 mi SSE 4.6 mph - N/A   Unknown
6:30 PM 66.2 °F 57.2 °F 73% 30.01 in 6.2 mi SSE 4.6 mph - N/A   Unknown
7:00 PM 64.4 °F 57.2 °F 77% 30.01 in 6.2 mi South 3.5 mph - N/A   Scattered Clouds
7:30 PM 66.2 °F 59.0 °F 78% 30.04 in 6.2 mi South 5.8 mph - N/A   Overcast
8:00 PM 66.2 °F 59.0 °F 78% 30.06 in 6.2 mi South 6.9 mph - N/A   Overcast
8:30 PM 64.4 °F 57.2 °F 77% 30.06 in 6.2 mi South 4.6 mph - N/A   Mostly Cloudy
9:00 PM 64 °F 57 °F 73% 30.08 in - South 5.8 mph - -  
9:00 PM 64.4 °F 57.2 °F 77% 30.06 in 6.2 mi South 5.8 mph - N/A   Scattered Clouds
9:30 PM 64.4 °F 59.0 °F 83% 30.09 in 6.2 mi West 5.8 mph - N/A   Mostly Cloudy
10:00 PM 64.4 °F 57.2 °F 77% 30.06 in 6.2 mi South 4.6 mph - N/A   Mostly Cloudy
10:30 PM 64.4 °F 59.0 °F 83% 30.06 in 6.2 mi SSE 6.9 mph - N/A   Mostly Cloudy
11:00 PM 64.4 °F 59.0 °F 83% 30.04 in 6.2 mi South 6.9 mph - N/A   Mostly Cloudy
11:30 PM 66.2 °F 59.0 °F 78% 30.06 in 6.2 mi SSW 5.8 mph - N/A   Overcast